,,,PA_Meas_PMT16A,,PR_Meas_QMR101_102,,RH_Meas_QMH101,,SR_Meas_QMS101,,TA_Meas_QMH101,,GenWind,,GenWind,
date,time,status,PA,status,PR,status,RH,status,SR,status,TA,status,DirAvg,status,SpdAvg,
2010-02-28, 00:00:04,VALID,1002.18,VALID,0,VALID,91.1663,VALID,0,VALID,22.7842,VALID,109,VALID,0,
2010-02-28, 00:01:04,VALID,1002.21,VALID,0,VALID,91.235,VALID,0.112286,VALID,22.8232,VALID,109,VALID,0,
2010-02-28, 00:02:04,VALID,1002.21,VALID,0,VALID,91.4334,VALID,0.112286,VALID,22.8427,VALID,109,VALID,0.132813,
2010-02-28, 00:03:04,VALID,1002.17,VALID,0,VALID,91.3723,VALID,0,VALID,22.8215,VALID,109,VALID,0,
2010-02-28, 00:04:04,VALID,1002.17,VALID,0,VALID,91.4791,VALID,0,VALID,22.8232,VALID,109,VALID,0,
2010-02-28, 00:05:04,VALID,1002.12,VALID,0,VALID,91.3113,VALID,0,VALID,22.8232,VALID,109,VALID,0.189063,
2010-02-28, 00:06:04,VALID,1002.12,VALID,0,VALID,91.4105,VALID,0,VALID,22.7842,VALID,109,VALID,0.220703,
2010-02-28, 00:07:04,VALID,1002.12,VALID,0,VALID,91.7309,VALID,0,VALID,22.8037,VALID,109,VALID,0.278516,
2010-02-28, 00:08:04,VALID,1002.13,VALID,0,VALID,91.5478,VALID,0,VALID,22.8037,VALID,109,VALID,0.201562,
2010-02-28, 00:09:04,VALID,1002.13,VALID,0,VALID,91.6699,VALID,0,VALID,22.8037,VALID,109,VALID,0.153125,
2010-02-28, 00:10:04,VALID,1002.08,VALID,0,VALID,91.5249,VALID,0,VALID,22.7647,VALID,109,VALID,0.0929687,
2010-02-28, 00:11:04,VALID,1002.11,VALID,0,VALID,91.5707,VALID,0,VALID,22.7452,VALID,109,VALID,0.227344,
2010-02-28, 00:12:04,VALID,1002.09,VALID,0,VALID,91.7385,VALID,0,VALID,22.7257,VALID,109,VALID,0.0832031,
2010-02-28, 00:13:04,VALID,1002.07,VALID,0,VALID,91.708,VALID,0,VALID,22.7045,VALID,109,VALID,0.115625,
2010-02-28, 00:14:04,VALID,1002.06,VALID,0,VALID,91.8454,VALID,0,VALID,22.7062,VALID,109,VALID,0.0960938,
2010-02-28, 00:15:04,VALID,1002.07,VALID,0,VALID,92.0895,VALID,0,VALID,22.7257,VALID,109,VALID,0.288281,
2010-02-28, 00:16:04,VALID,1002.08,VALID,0,VALID,92.1353,VALID,0,VALID,22.7452,VALID,109,VALID,0.294141,
2010-02-28, 00:17:04,VALID,1002.04,VALID,0,VALID,92.0895,VALID,0,VALID,22.7452,VALID,109,VALID,0.258984,
2010-02-28, 00:18:04,VALID,1002.04,VALID,0,VALID,91.998,VALID,0,VALID,22.7257,VALID,109,VALID,0.1875,
2010-02-28, 00:19:04,VALID,1002.04,VALID,0,VALID,91.8072,VALID,0,VALID,22.6477,VALID,109,VALID,0.230859,
2010-02-28, 00:20:04,VALID,1002.03,VALID,0,VALID,91.9598,VALID,0.112286,VALID,22.6069,VALID,109,VALID,0.0597656,
2010-02-28, 00:21:04,VALID,1002.01,VALID,0,VALID,92.2116,VALID,0,VALID,22.5892,VALID,109,VALID,0.0683594,
2010-02-28, 00:22:04,VALID,1002.01,VALID,0,VALID,92.1506,VALID,0,VALID,22.5892,VALID,109,VALID,0.274609,
2010-02-28, 00:23:04,VALID,1002.01,VALID,0,VALID,92.2803,VALID,0,VALID,22.5892,VALID,109,VALID,0.408594,
2010-02-28, 00:24:04,VALID,1002,VALID,0,VALID,92.41,VALID,0,VALID,22.5892,VALID,109,VALID,0.386719,
2010-02-28, 00:25:04,VALID,1001.98,VALID,0,VALID,92.4481,VALID,0,VALID,22.6087,VALID,109,VALID,0.430078,
2010-02-28, 00:26:04,VALID,1001.97,VALID,0,VALID,92.4786,VALID,0,VALID,22.6087,VALID,109,VALID,0.366797,
2010-02-28, 00:27:04,VALID,1002,VALID,0,VALID,92.41,VALID,0,VALID,22.6282,VALID,109,VALID,0.565234,
2010-02-28, 00:28:04,VALID,1001.97,VALID,0,VALID,92.3642,VALID,0.112286,VALID,22.6282,VALID,102,VALID,0.693359,
2010-02-28, 00:29:04,VALID,1002.01,VALID,0,VALID,92.4481,VALID,0,VALID,22.6087,VALID,91,VALID,0.500781,
2010-02-28, 00:30:04,VALID,1001.99,VALID,0,VALID,92.3947,VALID,0,VALID,22.6282,VALID,91,VALID,0.371484,
2010-02-28, 00:31:04,VALID,1002,VALID,0,VALID,92.4405,VALID,0,VALID,22.6477,VALID,91,VALID,0.612891,
2010-02-28, 00:32:04,VALID,1002,VALID,0,VALID,92.3794,VALID,0,VALID,22.6087,VALID,91,VALID,0.628125,
2010-02-28, 00:33:04,VALID,1001.99,VALID,0,VALID,92.2268,VALID,0,VALID,22.5892,VALID,88,VALID,0.853516,
2010-02-28, 00:34:04,VALID,1001.96,VALID,0,VALID,92.2268,VALID,0,VALID,22.5501,VALID,82,VALID,0.572656,
2010-02-28, 00:35:04,VALID,1001.91,VALID,0,VALID,92.1582,VALID,0,VALID,22.5111,VALID,82,VALID,0.421875,
2010-02-28, 00:36:04,VALID,1001.91,VALID,0,VALID,92.0819,VALID,0,VALID,22.4526,VALID,82,VALID,0.323047,
2010-02-28, 00:37:04,VALID,1001.9,VALID,0,VALID,92.12,VALID,0,VALID,22.4136,VALID,82,VALID,0.293359,
2010-02-28, 00:38:04,VALID,1001.89,VALID,0,VALID,92.0743,VALID,0,VALID,22.3339,VALID,82,VALID,0.297266,
2010-02-28, 00:39:04,VALID,1001.9,VALID,0,VALID,92.2268,VALID,0,VALID,22.3356,VALID,82,VALID,0.464063,
2010-02-28, 00:40:04,VALID,1001.87,VALID,0,VALID,92.2803,VALID,0,VALID,22.3161,VALID,82,VALID,0.408984,
2010-02-28, 00:41:04,VALID,1001.86,VALID,0,VALID,92.2116,VALID,0,VALID,22.2966,VALID,82,VALID,0.355859,
2010-02-28, 00:42:04,VALID,1001.84,VALID,0,VALID,92.4252,VALID,0,VALID,22.2966,VALID,82,VALID,0.505859,
2010-02-28, 00:43:04,VALID,1001.83,VALID,0,VALID,92.3947,VALID,0,VALID,22.2966,VALID,82,VALID,0.407813,
2010-02-28, 00:44:04,VALID,1001.79,VALID,0,VALID,92.5091,VALID,0,VALID,22.2771,VALID,82,VALID,0.309375,
2010-02-28, 00:45:04,VALID,1001.78,VALID,0,VALID,92.4786,VALID,0,VALID,22.2966,VALID,82,VALID,0.48125,
2010-02-28, 00:46:04,VALID,1001.77,VALID,0,VALID,92.4939,VALID,0,VALID,22.2966,VALID,82,VALID,0.344922,
2010-02-28, 00:47:04,VALID,1001.75,VALID,0,VALID,92.5702,VALID,0,VALID,22.2966,VALID,82,VALID,0.198047,
2010-02-28, 00:48:04,VALID,1001.8,VALID,0,VALID,92.6083,VALID,0,VALID,22.2966,VALID,82,VALID,0.212109,
2010-02-28, 00:49:04,VALID,1001.76,VALID,0,VALID,92.6007,VALID,0,VALID,22.3161,VALID,82,VALID,0.261719,
2010-02-28, 00:50:04,VALID,1001.76,VALID,0,VALID,92.4863,VALID,0,VALID,22.2966,VALID,82,VALID,0.447656,
2010-02-28, 00:51:04,VALID,1001.72,VALID,0,VALID,92.3947,VALID,0,VALID,22.2576,VALID,82,VALID,0.417578,
2010-02-28, 00:52:04,VALID,1001.74,VALID,0,VALID,92.4023,VALID,0,VALID,22.2186,VALID,82,VALID,0.433984,
2010-02-28, 00:53:04,VALID,1001.74,VALID,0,VALID,92.5397,VALID,0,VALID,22.2186,VALID,82,VALID,0.440625,
2010-02-28, 00:54:04,VALID,1001.73,VALID,0,VALID,92.7151,VALID,0,VALID,22.2381,VALID,82,VALID,0.479297,
2010-02-28, 00:55:04,VALID,1001.74,VALID,0,VALID,92.6312,VALID,0,VALID,22.2576,VALID,82,VALID,0.598828,
2010-02-28, 00:56:04,VALID,1001.75,VALID,0,VALID,92.6465,VALID,0,VALID,22.2381,VALID,82,VALID,0.531641,
2010-02-28, 00:57:04,VALID,1001.74,VALID,0,VALID,92.5854,VALID,0,VALID,22.2186,VALID,82,VALID,0.511328,
2010-02-28, 00:58:04,VALID,1001.76,VALID,0,VALID,92.7685,VALID,0,VALID,22.2381,VALID,82,VALID,0.527734,
2010-02-28, 00:59:04,VALID,1001.77,VALID,0,VALID,92.7914,VALID,0,VALID,22.2576,VALID,82,VALID,0.519922,
2010-02-28, 01:00:04,VALID,1001.77,VALID,0,VALID,92.7609,VALID,0,VALID,22.2771,VALID,82,VALID,0.401172,
2010-02-28, 01:01:04,VALID,1001.77,VALID,0,VALID,92.7457,VALID,0,VALID,22.2771,VALID,82,VALID,0.135156,
2010-02-28, 01:02:04,VALID,1001.76,VALID,0,VALID,92.6923,VALID,0,VALID,22.2576,VALID,82,VALID,0,
2010-02-28, 01:03:04,VALID,1001.77,VALID,0,VALID,92.616,VALID,0,VALID,22.2381,VALID,82,VALID,0,
2010-02-28, 01:04:04,VALID,1001.75,VALID,0,VALID,92.5168,VALID,0,VALID,22.199,VALID,82,VALID,0,
2010-02-28, 01:05:04,VALID,1001.72,VALID,0,VALID,92.4405,VALID,0,VALID,22.16,VALID,82,VALID,0,
2010-02-28, 01:06:04,VALID,1001.71,VALID,0,VALID,92.5244,VALID,0,VALID,22.1389,VALID,82,VALID,0,
2010-02-28, 01:07:04,VALID,1001.68,VALID,0,VALID,92.5702,VALID,0,VALID,22.16,VALID,82,VALID,0,
2010-02-28, 01:08:04,VALID,1001.67,VALID,0,VALID,92.5549,VALID,0,VALID,22.16,VALID,82,VALID,0,
2010-02-28, 01:09:04,VALID,1001.68,VALID,0,VALID,92.5015,VALID,0,VALID,22.121,VALID,82,VALID,0,
2010-02-28, 01:10:04,VALID,1001.65,VALID,0,VALID,92.41,VALID,0,VALID,22.1015,VALID,82,VALID,0,
2010-02-28, 01:11:04,VALID,1001.67,VALID,0,VALID,92.4786,VALID,0,VALID,22.0625,VALID,82,VALID,0,
2010-02-28, 01:12:04,VALID,1001.68,VALID,0,VALID,92.7914,VALID,0,VALID,22.1015,VALID,128,VALID,0.553516,
2010-02-28, 01:13:04,VALID,1001.66,VALID,0,VALID,92.8143,VALID,0,VALID,22.16,VALID,128,VALID,0.364062,
2010-02-28, 01:14:04,VALID,1001.67,VALID,0,VALID,92.6846,VALID,0,VALID,22.1194,VALID,128,VALID,0.270703,
2010-02-28, 01:15:04,VALID,1001.68,VALID,0,VALID,92.6465,VALID,0,VALID,22.1015,VALID,128,VALID,0.282813,
2010-02-28, 01:16:04,VALID,1001.67,VALID,0,VALID,92.6846,VALID,0,VALID,22.1015,VALID,131,VALID,0.408203,
2010-02-28, 01:17:04,VALID,1001.68,VALID,0,VALID,92.7838,VALID,0,VALID,22.1015,VALID,152,VALID,0.45625,
2010-02-28, 01:18:04,VALID,1001.71,VALID,0,VALID,92.8906,VALID,0,VALID,22.1795,VALID,176,VALID,0.701563,
2010-02-28, 01:19:04,VALID,1001.7,VALID,0,VALID,92.9822,VALID,0,VALID,22.2381,VALID,167,VALID,0.517969,
2010-02-28, 01:20:04,VALID,1001.71,VALID,0,VALID,92.8906,VALID,0,VALID,22.2576,VALID,167,VALID,0.121484,
2010-02-28, 01:21:04,VALID,1001.72,VALID,0,VALID,92.8143,VALID,0,VALID,22.2576,VALID,167,VALID,0.405078,
2010-02-28, 01:22:04,VALID,1001.68,VALID,0,VALID,92.7609,VALID,0,VALID,22.2576,VALID,167,VALID,0.324219,
2010-02-28, 01:23:04,VALID,1001.65,VALID,0,VALID,92.7609,VALID,0,VALID,22.2966,VALID,163,VALID,0.556641,
2010-02-28, 01:24:04,VALID,1001.65,VALID,0,VALID,92.7685,VALID,0,VALID,22.3356,VALID,155,VALID,0.5125,
2010-02-28, 01:25:04,VALID,1001.63,VALID,0,VALID,92.7457,VALID,0,VALID,22.3551,VALID,143,VALID,0.576953,
2010-02-28, 01:26:04,VALID,1001.63,VALID,0,VALID,92.6388,VALID,0,VALID,22.4136,VALID,142,VALID,0.528516,
2010-02-28, 01:27:04,VALID,1001.62,VALID,0,VALID,92.3184,VALID,0,VALID,22.3941,VALID,142,VALID,0.290625,
2010-02-28, 01:28:04,VALID,1001.61,VALID,0,VALID,92.2268,VALID,0,VALID,22.3746,VALID,142,VALID,0.394531,
2010-02-28, 01:29:04,VALID,1001.6,VALID,0,VALID,92.2421,VALID,0,VALID,22.3746,VALID,142,VALID,0.625,
2010-02-28, 01:30:04,VALID,1001.62,VALID,0,VALID,92.12,VALID,0,VALID,22.3551,VALID,142,VALID,0.655469,
2010-02-28, 01:31:04,VALID,1001.65,VALID,0,VALID,92.0209,VALID,0,VALID,22.3551,VALID,142,VALID,0.323438,
2010-02-28, 01:32:04,VALID,1001.64,VALID,0,VALID,91.8988,VALID,0,VALID,22.3551,VALID,142,VALID,0.282813,
2010-02-28, 01:33:04,VALID,1001.61,VALID,0,VALID,91.7843,VALID,0,VALID,22.3356,VALID,142,VALID,0.273047,
2010-02-28, 01:34:04,VALID,1001.62,VALID,0,VALID,91.8148,VALID,0,VALID,22.2966,VALID,142,VALID,0.116797,
2010-02-28, 01:35:04,VALID,1001.59,VALID,0,VALID,91.9445,VALID,0,VALID,22.3161,VALID,142,VALID,0.14375,
2010-02-28, 01:36:04,VALID,1001.57,VALID,0,VALID,92.0056,VALID,0,VALID,22.3356,VALID,142,VALID,0.133594,
2010-02-28, 01:37:04,VALID,1001.54,VALID,0,VALID,91.9522,VALID,0,VALID,22.3356,VALID,142,VALID,0.129688,
2010-02-28, 01:38:04,VALID,1001.52,VALID,0,VALID,91.853,VALID,0,VALID,22.3161,VALID,142,VALID,0.0277344,
2010-02-28, 01:39:04,VALID,1001.54,VALID,0,VALID,91.8301,VALID,0.112286,VALID,22.2966,VALID,142,VALID,0,
2010-02-28, 01:40:04,VALID,1001.47,VALID,0,VALID,91.7691,VALID,0,VALID,22.2771,VALID,142,VALID,0.00429688,
2010-02-28, 01:41:04,VALID,1001.47,VALID,0,VALID,91.7462,VALID,0,VALID,22.2576,VALID,137,VALID,0.713281,
2010-02-28, 01:42:04,VALID,1001.47,VALID,0,VALID,91.5936,VALID,0,VALID,22.2186,VALID,133,VALID,0.109766,
2010-02-28, 01:43:04,VALID,1001.45,VALID,0,VALID,91.5097,VALID,0,VALID,22.16,VALID,133,VALID,0.430078,
2010-02-28, 01:44:04,VALID,1001.46,VALID,0,VALID,91.7691,VALID,0,VALID,22.16,VALID,133,VALID,0.451953,
2010-02-28, 01:45:04,VALID,1001.48,VALID,0,VALID,91.8606,VALID,0,VALID,22.16,VALID,133,VALID,0.656641,
2010-02-28, 01:46:04,VALID,1001.48,VALID,0,VALID,91.7996,VALID,0,VALID,22.1795,VALID,133,VALID,0.648438,
2010-02-28, 01:47:04,VALID,1001.47,VALID,0,VALID,91.853,VALID,0.112286,VALID,22.1795,VALID,133,VALID,0.511719,
2010-02-28, 01:48:04,VALID,1001.46,VALID,0,VALID,91.9293,VALID,0,VALID,22.2186,VALID,133,VALID,0.451172,
2010-02-28, 01:49:04,VALID,1001.44,VALID,0,VALID,91.8606,VALID,0,VALID,22.2169,VALID,133,VALID,0.578516,
2010-02-28, 01:50:04,VALID,1001.45,VALID,0,VALID,91.7614,VALID,0,VALID,22.2771,VALID,133,VALID,0.601953,
2010-02-28, 01:51:04,VALID,1001.43,VALID,0,VALID,91.7614,VALID,0.112286,VALID,22.2754,VALID,133,VALID,0.451562,
2010-02-28, 01:52:04,VALID,1001.47,VALID,0,VALID,91.6623,VALID,0,VALID,22.2949,VALID,133,VALID,0.457812,
2010-02-28, 01:53:04,VALID,1001.48,VALID,0,VALID,91.586,VALID,0.112286,VALID,22.3161,VALID,133,VALID,0.367578,
2010-02-28, 01:54:04,VALID,1001.47,VALID,0,VALID,91.6241,VALID,0,VALID,22.3161,VALID,133,VALID,0.351172,
2010-02-28, 01:55:04,VALID,1001.5,VALID,0,VALID,91.6928,VALID,0.112286,VALID,22.3356,VALID,133,VALID,0.405859,
2010-02-28, 01:56:04,VALID,1001.49,VALID,0,VALID,91.6699,VALID,0,VALID,22.3356,VALID,133,VALID,0.416797,
2010-02-28, 01:57:04,VALID,1001.48,VALID,0,VALID,91.6775,VALID,0,VALID,22.3356,VALID,133,VALID,0.378125,
2010-02-28, 01:58:04,VALID,1001.51,VALID,0,VALID,91.6775,VALID,0,VALID,22.3551,VALID,133,VALID,0.267969,
2010-02-28, 01:59:04,VALID,1001.47,VALID,0,VALID,91.7309,VALID,0,VALID,22.3551,VALID,133,VALID,0.3,
2010-02-28, 02:00:04,VALID,1001.48,VALID,0,VALID,91.6928,VALID,0,VALID,22.3568,VALID,131,VALID,0.389453,
2010-02-28, 02:01:04,VALID,1001.49,VALID,0,VALID,91.6775,VALID,0,VALID,22.3568,VALID,131,VALID,0.518359,
2010-02-28, 02:02:04,VALID,1001.47,VALID,0,VALID,91.5249,VALID,0,VALID,22.3373,VALID,131,VALID,0.436328,
2010-02-28, 02:03:04,VALID,1001.52,VALID,0,VALID,91.5936,VALID,0,VALID,22.3568,VALID,131,VALID,0.501953,
2010-02-28, 02:04:04,VALID,1001.51,VALID,0,VALID,91.4868,VALID,0,VALID,22.3373,VALID,131,VALID,0.386719,
2010-02-28, 02:05:04,VALID,1001.53,VALID,0,VALID,91.5097,VALID,0,VALID,22.3373,VALID,131,VALID,0.276172,
2010-02-28, 02:06:04,VALID,1001.51,VALID,0,VALID,91.5173,VALID,0,VALID,22.3373,VALID,131,VALID,0,
2010-02-28, 02:07:04,VALID,1001.49,VALID,0,VALID,91.4715,VALID,0,VALID,22.3373,VALID,131,VALID,0,
2010-02-28, 02:08:04,VALID,1001.51,VALID,0,VALID,91.4105,VALID,0,VALID,22.3178,VALID,131,VALID,0,
2010-02-28, 02:09:04,VALID,1001.5,VALID,0,VALID,91.3189,VALID,0,VALID,22.2983,VALID,131,VALID,0,
2010-02-28, 02:10:04,VALID,1001.5,VALID,0,VALID,91.3647,VALID,0,VALID,22.2788,VALID,131,VALID,0,
2010-02-28, 02:11:04,VALID,1001.52,VALID,0,VALID,91.2731,VALID,0,VALID,22.2397,VALID,131,VALID,0,
2010-02-28, 02:12:04,VALID,1001.51,VALID,0,VALID,91.2884,VALID,0,VALID,22.2202,VALID,131,VALID,0,
2010-02-28, 02:13:04,VALID,1001.53,VALID,0,VALID,91.4105,VALID,0,VALID,22.2202,VALID,131,VALID,0.244922,
2010-02-28, 02:14:04,VALID,1001.51,VALID,0,VALID,91.4715,VALID,0,VALID,22.2202,VALID,145,VALID,0.424609,
2010-02-28, 02:15:04,VALID,1001.52,VALID,0,VALID,91.5402,VALID,0,VALID,22.199,VALID,144,VALID,0.571875,
2010-02-28, 02:16:04,VALID,1001.51,VALID,0,VALID,91.4563,VALID,0,VALID,22.1795,VALID,144,VALID,0.467969,
2010-02-28, 02:17:04,VALID,1001.49,VALID,0,VALID,91.5478,VALID,0,VALID,22.199,VALID,143,VALID,0.309375,
2010-02-28, 02:18:04,VALID,1001.55,VALID,0,VALID,91.4563,VALID,0,VALID,22.2397,VALID,143,VALID,0.579297,
2010-02-28, 02:19:04,VALID,1001.54,VALID,0,VALID,91.3647,VALID,0,VALID,22.199,VALID,142,VALID,0.478516,
2010-02-28, 02:20:04,VALID,1001.49,VALID,0,VALID,91.3037,VALID,0,VALID,22.2186,VALID,142,VALID,0.525391,
2010-02-28, 02:21:04,VALID,1001.5,VALID,0,VALID,91.2655,VALID,0,VALID,22.2381,VALID,137,VALID,0.768359,
2010-02-28, 02:22:04,VALID,1001.49,VALID,0,VALID,91.1511,VALID,0,VALID,22.2771,VALID,143,VALID,0.903125,
2010-02-28, 02:23:04,VALID,1001.51,VALID,0,VALID,90.9298,VALID,0,VALID,22.2966,VALID,148,VALID,0.85625,
2010-02-28, 02:24:04,VALID,1001.5,VALID,0,VALID,90.8154,VALID,0,VALID,22.3161,VALID,148,VALID,0.914453,
2010-02-28, 02:25:04,VALID,1001.52,VALID,0,VALID,90.6094,VALID,0,VALID,22.3161,VALID,148,VALID,0.773438,
2010-02-28, 02:26:04,VALID,1001.52,VALID,0,VALID,90.5636,VALID,0,VALID,22.3356,VALID,148,VALID,0.787891,
2010-02-28, 02:27:04,VALID,1001.52,VALID,0,VALID,90.4644,VALID,0.112286,VALID,22.3551,VALID,148,VALID,0.742188,
2010-02-28, 02:28:04,VALID,1001.52,VALID,0,VALID,90.2813,VALID,0,VALID,22.3746,VALID,148,VALID,0.632422,
2010-02-28, 02:29:04,VALID,1001.5,VALID,0,VALID,90.1211,VALID,0,VALID,22.3746,VALID,148,VALID,0.542578,
2010-02-28, 02:30:04,VALID,1001.47,VALID,0,VALID,90.0906,VALID,0,VALID,22.3763,VALID,148,VALID,0.459766,
2010-02-28, 02:31:04,VALID,1001.5,VALID,0,VALID,90.0143,VALID,0,VALID,22.3763,VALID,148,VALID,0.249609,
2010-02-28, 02:32:04,VALID,1001.48,VALID,0,VALID,89.999,VALID,0,VALID,22.3763,VALID,148,VALID,0.370703,
2010-02-28, 02:33:04,VALID,1001.51,VALID,0,VALID,89.9456,VALID,0,VALID,22.3763,VALID,148,VALID,0.257422,
2010-02-28, 02:34:04,VALID,1001.46,VALID,0,VALID,89.8617,VALID,0,VALID,22.3763,VALID,148,VALID,0.187109,
2010-02-28, 02:35:04,VALID,1001.49,VALID,0,VALID,89.8617,VALID,0,VALID,22.3568,VALID,148,VALID,0.187891,
2010-02-28, 02:36:04,VALID,1001.47,VALID,0,VALID,89.8617,VALID,0,VALID,22.3763,VALID,148,VALID,0.169531,
2010-02-28, 02:37:04,VALID,1001.46,VALID,0,VALID,89.7625,VALID,0,VALID,22.3763,VALID,148,VALID,0.238672,
2010-02-28, 02:38:04,VALID,1001.44,VALID,0,VALID,89.7396,VALID,0,VALID,22.3568,VALID,148,VALID,0.0292969,
2010-02-28, 02:39:04,VALID,1001.43,VALID,0,VALID,89.8235,VALID,0,VALID,22.3568,VALID,148,VALID,0,
2010-02-28, 02:40:04,VALID,1001.48,VALID,0,VALID,89.8006,VALID,0,VALID,22.3568,VALID,148,VALID,0.233984,
2010-02-28, 02:41:04,VALID,1001.47,VALID,0,VALID,89.7701,VALID,0,VALID,22.3568,VALID,148,VALID,0.358984,
2010-02-28, 02:42:04,VALID,1001.52,VALID,0,VALID,89.8006,VALID,0,VALID,22.3763,VALID,144,VALID,0.389062,
2010-02-28, 02:43:04,VALID,1001.51,VALID,0,VALID,89.7243,VALID,0,VALID,22.3763,VALID,130,VALID,0.460156,
2010-02-28, 02:44:04,VALID,1001.52,VALID,0,VALID,89.7014,VALID,0,VALID,22.3958,VALID,130,VALID,0.386719,
2010-02-28, 02:45:04,VALID,1001.52,VALID,0,VALID,89.648,VALID,0,VALID,22.4136,VALID,130,VALID,0.427344,
2010-02-28, 02:46:04,VALID,1001.55,VALID,0,VALID,89.5946,VALID,0,VALID,22.4331,VALID,130,VALID,0.187891,
2010-02-28, 02:47:04,VALID,1001.54,VALID,0,VALID,89.526,VALID,0,VALID,22.4331,VALID,130,VALID,0.0234375,
2010-02-28, 02:48:04,VALID,1001.51,VALID,0,VALID,89.4191,VALID,0,VALID,22.4331,VALID,130,VALID,0,
2010-02-28, 02:49:04,VALID,1001.53,VALID,0,VALID,89.2818,VALID,0,VALID,22.3924,VALID,130,VALID,0,
2010-02-28, 02:50:04,VALID,1001.5,VALID,0,VALID,89.3352,VALID,0,VALID,22.3746,VALID,130,VALID,0,
2010-02-28, 02:51:04,VALID,1001.52,VALID,0,VALID,89.4726,VALID,0.112286,VALID,22.3534,VALID,130,VALID,0,
2010-02-28, 02:52:04,VALID,1001.49,VALID,0,VALID,89.6023,VALID,0,VALID,22.3729,VALID,130,VALID,0.0046875,
2010-02-28, 02:53:04,VALID,1001.45,VALID,0,VALID,89.732,VALID,0,VALID,22.3746,VALID,130,VALID,0.414063,
2010-02-28, 02:54:04,VALID,1001.45,VALID,0,VALID,89.6862,VALID,0,VALID,22.3746,VALID,130,VALID,0.417188,
2010-02-28, 02:55:04,VALID,1001.43,VALID,0,VALID,89.732,VALID,0.112286,VALID,22.3534,VALID,130,VALID,0.537109,
2010-02-28, 02:56:04,VALID,1001.39,VALID,0,VALID,89.8693,VALID,0,VALID,22.3534,VALID,125,VALID,0.661719,
2010-02-28, 02:57:04,VALID,1001.41,VALID,0,VALID,89.8998,VALID,0,VALID,22.3941,VALID,125,VALID,0.480078,
2010-02-28, 02:58:04,VALID,1001.38,VALID,0,VALID,90.06,VALID,0,VALID,22.3941,VALID,125,VALID,0.514844,
2010-02-28, 02:59:04,VALID,1001.39,VALID,0,VALID,90.0524,VALID,0.112286,VALID,22.4136,VALID,125,VALID,0.403906,
2010-02-28, 03:00:04,VALID,1001.4,VALID,0,VALID,90.0906,VALID,0,VALID,22.3941,VALID,125,VALID,0.452734,
2010-02-28, 03:01:04,VALID,1001.41,VALID,0,VALID,90.2431,VALID,0,VALID,22.3941,VALID,127,VALID,0.502734,
2010-02-28, 03:02:04,VALID,1001.46,VALID,0,VALID,90.2508,VALID,0,VALID,22.3941,VALID,129,VALID,0.458203,
2010-02-28, 03:03:04,VALID,1001.47,VALID,0,VALID,90.2584,VALID,0,VALID,22.3941,VALID,129,VALID,0.323828,
2010-02-28, 03:04:04,VALID,1001.47,VALID,0,VALID,90.266,VALID,0,VALID,22.3941,VALID,129,VALID,0.110156,
2010-02-28, 03:05:04,VALID,1001.46,VALID,0,VALID,90.3728,VALID,0.112286,VALID,22.3746,VALID,129,VALID,0,
2010-02-28, 03:06:04,VALID,1001.47,VALID,0,VALID,90.4263,VALID,0,VALID,22.3746,VALID,129,VALID,0,
2010-02-28, 03:07:05,VALID,1001.48,VALID,0,VALID,90.3881,VALID,0,VALID,22.3551,VALID,131,VALID,0.239063,
2010-02-28, 03:08:05,VALID,1001.46,VALID,0,VALID,90.5026,VALID,0,VALID,22.3551,VALID,131,VALID,0.222266,
2010-02-28, 03:09:05,VALID,1001.49,VALID,0,VALID,90.556,VALID,0,VALID,22.3551,VALID,213,VALID,0.500391,
2010-02-28, 03:10:05,VALID,1001.46,VALID,0,VALID,90.556,VALID,0,VALID,22.3534,VALID,213,VALID,0.408984,
2010-02-28, 03:11:05,VALID,1001.46,VALID,0,VALID,90.4339,VALID,0,VALID,22.3746,VALID,213,VALID,0.0386719,
2010-02-28, 03:12:05,VALID,1001.47,VALID,0,VALID,90.3805,VALID,0,VALID,22.3551,VALID,213,VALID,0,
2010-02-28, 03:13:05,VALID,1001.49,VALID,0,VALID,90.3805,VALID,0,VALID,22.3356,VALID,213,VALID,0,
2010-02-28, 03:14:05,VALID,1001.48,VALID,0,VALID,90.3118,VALID,0.112286,VALID,22.2966,VALID,213,VALID,0,
2010-02-28, 03:15:05,VALID,1001.48,VALID,0,VALID,90.1821,VALID,0,VALID,22.2381,VALID,210,VALID,0.0175781,
2010-02-28, 03:16:05,VALID,1001.47,VALID,0,VALID,90.3881,VALID,0,VALID,22.2186,VALID,102,VALID,0.346875,
2010-02-28, 03:17:05,VALID,1001.49,VALID,0,VALID,90.266,VALID,0,VALID,22.199,VALID,119,VALID,0.497656,
2010-02-28, 03:18:05,VALID,1001.45,VALID,0,VALID,90.1745,VALID,0,VALID,22.16,VALID,119,VALID,0.491406,
2010-02-28, 03:19:05,VALID,1001.51,VALID,0,VALID,90.1745,VALID,0,VALID,22.1405,VALID,119,VALID,0.427734,
2010-02-28, 03:20:05,VALID,1001.51,VALID,0,VALID,90.4263,VALID,0,VALID,22.1405,VALID,119,VALID,0.265625,
2010-02-28, 03:21:05,VALID,1001.48,VALID,0,VALID,90.4339,VALID,0,VALID,22.1617,VALID,128,VALID,0.374219,
2010-02-28, 03:22:05,VALID,1001.52,VALID,0,VALID,90.411,VALID,0,VALID,22.16,VALID,128,VALID,0.344141,
2010-02-28, 03:23:05,VALID,1001.46,VALID,0,VALID,90.5178,VALID,0,VALID,22.1795,VALID,128,VALID,0.55625,
2010-02-28, 03:24:05,VALID,1001.49,VALID,0,VALID,90.5407,VALID,0,VALID,22.2186,VALID,129,VALID,0.854297,
2010-02-28, 03:25:05,VALID,1001.46,VALID,0,VALID,90.3881,VALID,0,VALID,22.2576,VALID,129,VALID,0.718359,
2010-02-28, 03:26:05,VALID,1001.42,VALID,0,VALID,90.144,VALID,0,VALID,22.3373,VALID,128,VALID,0.822266,
2010-02-28, 03:27:05,VALID,1001.4,VALID,0,VALID,89.8998,VALID,0,VALID,22.3161,VALID,128,VALID,0.728516,
2010-02-28, 03:28:05,VALID,1001.38,VALID,0,VALID,89.6862,VALID,0,VALID,22.3551,VALID,128,VALID,0.610937,
2010-02-28, 03:29:05,VALID,1001.37,VALID,0,VALID,89.6404,VALID,0,VALID,22.3551,VALID,124,VALID,0.655859,
2010-02-28, 03:30:05,VALID,1001.38,VALID,0,VALID,89.6023,VALID,0,VALID,22.3746,VALID,121,VALID,0.741797,
2010-02-28, 03:31:05,VALID,1001.38,VALID,0,VALID,89.442,VALID,0,VALID,22.4136,VALID,121,VALID,0.742188,
2010-02-28, 03:32:05,VALID,1001.41,VALID,0,VALID,89.3123,VALID,0,VALID,22.4136,VALID,121,VALID,0.742188,
2010-02-28, 03:33:05,VALID,1001.43,VALID,0,VALID,89.1063,VALID,0,VALID,22.4153,VALID,116,VALID,0.842578,
2010-02-28, 03:34:05,VALID,1001.43,VALID,0,VALID,89.0453,VALID,0,VALID,22.3941,VALID,112,VALID,0.826172,
2010-02-28, 03:35:05,VALID,1001.45,VALID,0,VALID,89.0071,VALID,0,VALID,22.3763,VALID,112,VALID,0.609766,
2010-02-28, 03:36:05,VALID,1001.47,VALID,0,VALID,89.0224,VALID,0,VALID,22.3161,VALID,112,VALID,0.337109,
2010-02-28, 03:37:05,VALID,1001.45,VALID,0,VALID,89.1445,VALID,0,VALID,22.2771,VALID,112,VALID,0.200391,
2010-02-28, 03:38:05,VALID,1001.44,VALID,0,VALID,89.1826,VALID,0,VALID,22.2381,VALID,112,VALID,0.0367187,
2010-02-28, 03:39:05,VALID,1001.44,VALID,0,VALID,89.3505,VALID,0,VALID,22.2202,VALID,112,VALID,0.0992187,
2010-02-28, 03:40:05,VALID,1001.45,VALID,0,VALID,89.6099,VALID,0,VALID,22.2007,VALID,112,VALID,0.278516,
2010-02-28, 03:41:05,VALID,1001.44,VALID,0,VALID,89.7243,VALID,0,VALID,22.1795,VALID,98,VALID,0.430859,
2010-02-28, 03:42:05,VALID,1001.48,VALID,0,VALID,89.9227,VALID,0,VALID,22.1405,VALID,96,VALID,0.440625,
2010-02-28, 03:43:05,VALID,1001.46,VALID,0,VALID,89.9227,VALID,0,VALID,22.1015,VALID,96,VALID,0.448438,
2010-02-28, 03:44:05,VALID,1001.45,VALID,0,VALID,89.8998,VALID,0,VALID,22.082,VALID,96,VALID,0.539063,
2010-02-28, 03:45:05,VALID,1001.5,VALID,0,VALID,90.35,VALID,0,VALID,22.0235,VALID,97,VALID,0.648438,